timestamp,surface_pressure_avg,surface_temp_avg,battery_voltage,lat,long
2021-08-27 00:09:01+00:00,273.1665,18.74,12.81,47.84626,-54.09684
2021-08-27 00:19:01+00:00,277.9131,18.73,12.73,47.84626,-54.09684
2021-08-27 00:29:01+00:00,286.0864,18.7,12.73,47.84626,-54.09684
2021-08-27 00:39:01+00:00,292.4747,18.7,12.73,47.84626,-54.09684
2021-08-27 00:49:01+00:00,298.563,18.7,12.73,47.84626,-54.09684
2021-08-27 00:59:01+00:00,304.368,18.68,12.73,47.84626,-54.09684
2021-08-27 01:09:01+00:00,310.1997,18.7,12.73,47.84626,-54.09684
2021-08-27 01:19:01+00:00,315.138,18.68,12.73,47.84626,-54.09684
2021-08-27 01:29:01+00:00,319.298,18.69,12.73,47.84626,-54.09684
2021-08-27 01:39:01+00:00,324.2896,18.69,12.73,47.84626,-54.09684
2021-08-27 01:49:01+00:00,329.528,18.69,12.73,47.84626,-54.09684
2021-08-27 01:59:01+00:00,334.3796,18.7,12.73,47.84626,-54.09684
2021-08-27 02:09:01+00:00,336.11300000000006,18.7,12.73,47.84626,-54.09684
2021-08-27 02:19:01+00:00,336.9863,18.7,12.73,47.84626,-54.09684
2021-08-27 02:29:01+00:00,338.0114,18.7,12.73,47.84626,-54.09684
2021-08-27 02:39:01+00:00,338.4529,18.7,12.73,47.84626,-54.09684
2021-08-27 02:49:01+00:00,337.848,18.7,12.73,47.84626,-54.09684
2021-08-27 02:59:01+00:00,337.298,18.7,12.73,47.84626,-54.09684
2021-08-27 03:09:01+00:00,336.6263,18.7,12.73,47.84626,-54.09684
2021-08-27 03:19:01+00:00,334.6847,18.7,12.73,47.84626,-54.09684
2021-08-27 03:29:01+00:00,332.9863,18.7,12.73,47.84626,-54.09684
2021-08-27 03:39:01+00:00,331.5296,18.7,12.73,47.84626,-54.09684
2021-08-27 03:49:01+00:00,326.4896,18.7,12.73,47.84626,-54.09684
2021-08-27 03:59:01+00:00,322.328,18.7,12.73,47.84626,-54.09684
2021-08-27 04:09:01+00:00,322.1913,18.7,12.73,47.84626,-54.09684
2021-08-27 04:19:01+00:00,319.6063,18.7,12.73,47.84626,-54.09684
2021-08-27 04:29:01+00:00,313.9363,18.7,12.73,47.84626,-54.09684
2021-08-27 04:39:01+00:00,310.0496,18.7,12.73,47.84626,-54.09684
2021-08-27 04:49:01+00:00,305.7814,18.7,12.73,47.84626,-54.09684
2021-08-27 04:59:01+00:00,299.713,18.57,12.73,47.84626,-54.09684
2021-08-27 05:09:01+00:00,295.2746,18.6,12.73,47.84626,-54.09684
2021-08-27 05:19:00+00:00,289.6014,18.59,12.73,47.84626,-54.09684
2021-08-27 05:29:00+00:00,280.7131,18.59,12.73,47.84626,-54.09684
2021-08-27 05:39:00+00:00,271.0614,18.6,12.73,47.84626,-54.09684
2021-08-27 05:49:00+00:00,266.2964,18.6,12.73,47.84626,-54.09684
2021-08-27 05:59:00+00:00,259.7631,18.6,12.73,47.84626,-54.09684
2021-08-27 06:09:00+00:00,248.9747,18.6,12.73,47.84626,-54.09684
2021-08-27 06:19:00+00:00,236.3547,18.6,12.65,47.84626,-54.09684
2021-08-27 06:29:00+00:00,228.5148,18.6,12.65,47.84626,-54.09684
2021-08-27 06:39:00+00:00,221.8898,18.6,12.65,47.84626,-54.09684
2021-08-27 06:49:00+00:00,211.9564,18.6,12.65,47.84626,-54.09684
2021-08-27 06:59:00+00:00,203.4131,18.6,12.65,47.84626,-54.09684
2021-08-27 07:09:00+00:00,198.6032,18.6,12.65,47.84626,-54.09684
2021-08-27 07:19:00+00:00,192.8131,18.6,12.65,47.84626,-54.09684
2021-08-27 07:29:00+00:00,184.3615,18.6,12.65,47.84626,-54.09684
2021-08-27 07:39:00+00:00,179.5248,18.6,12.65,47.84626,-54.09684
2021-08-27 07:49:00+00:00,176.4765,18.6,12.65,47.84626,-54.09684
2021-08-27 07:59:00+00:00,171.2532,18.6,12.65,47.84626,-54.09684
2021-08-27 08:09:00+00:00,168.7165,18.6,12.65,47.84626,-54.09684
2021-08-27 08:19:01+00:00,173.5331,18.6,12.65,47.84626,-54.09684
2021-08-27 08:29:01+00:00,175.8815,18.6,12.65,47.84626,-54.09684
2021-08-27 08:39:01+00:00,174.4515,18.59,12.65,47.84626,-54.09684
2021-08-27 08:49:01+00:00,177.4965,18.59,12.65,47.84626,-54.09684
2021-08-27 08:59:01+00:00,181.9048,18.54,12.65,47.84626,-54.09684
2021-08-27 09:09:01+00:00,186.5765,18.5,12.65,47.84626,-54.09684
2021-08-27 09:19:01+00:00,192.4915,18.5,12.65,47.84626,-54.09684
2021-08-27 09:29:01+00:00,198.5848,18.5,12.65,47.84626,-54.09684
2021-08-27 09:39:01+00:00,204.8798,18.5,12.65,47.84626,-54.09684
2021-08-27 09:49:01+00:00,209.8181,18.5,12.65,47.84626,-54.09684
2021-08-27 09:59:01+00:00,216.7381,18.5,12.65,47.84626,-54.09684
2021-08-27 10:09:01+00:00,224.7365,18.5,12.65,47.84626,-54.09684
2021-08-27 10:19:01+00:00,228.4147,18.5,12.65,47.84626,-54.09684
2021-08-27 10:29:01+00:00,233.4764,18.5,12.65,47.84626,-54.09684
2021-08-27 10:39:01+00:00,241.6281,18.5,12.65,47.84626,-54.09684
2021-08-27 10:49:01+00:00,247.6913,18.52,12.65,47.84626,-54.09684
2021-08-27 10:59:01+00:00,251.2247,18.55,12.65,47.84626,-54.09684
2021-08-27 11:09:01+00:00,254.0164,18.56,12.65,47.84626,-54.09684
2021-08-27 11:19:01+00:00,257.3164,18.57,12.73,47.84626,-54.09684
2021-08-27 11:29:01+00:00,261.6014,18.58,12.73,47.84626,-54.09684
2021-08-27 11:39:01+00:00,264.0281,18.59,12.73,47.84626,-54.09684
2021-08-27 11:49:01+00:00,265.6031,18.59,12.73,47.84626,-54.09684
2021-08-27 11:59:01+00:00,267.3497,18.58,12.73,47.84626,-54.09684
2021-08-27 12:09:01+00:00,272.0064,18.58,12.73,47.84626,-54.09684
2021-08-27 12:19:01+00:00,273.9314,18.57,12.73,47.84626,-54.09684
2021-08-27 12:29:01+00:00,274.0597,18.56,12.73,47.84626,-54.09684
2021-08-27 12:39:01+00:00,281.1331,18.52,12.73,47.84626,-54.09684
2021-08-27 12:49:01+00:00,292.7264,18.5,12.73,47.84626,-54.09684
2021-08-27 12:59:01+00:00,296.978,18.53,12.73,47.84626,-54.09684
2021-08-27 13:09:01+00:00,299.6813,18.56,12.73,47.84626,-54.09684
2021-08-27 13:19:01+00:00,306.9897,18.57,12.73,47.84626,-54.09684
2021-08-27 13:29:01+00:00,314.3063,18.58,12.73,47.84626,-54.09684
2021-08-27 13:39:01+00:00,316.0546,18.58,12.73,47.84626,-54.09684
2021-08-27 13:49:01+00:00,318.8063,18.58,12.73,47.84626,-54.09684
2021-08-27 13:59:01+00:00,324.243,18.58,12.73,47.84626,-54.09684
2021-08-27 14:09:01+00:00,327.003,18.57,12.73,47.84626,-54.09684
2021-08-27 14:19:01+00:00,327.3497,18.55,12.81,47.84626,-54.09684
2021-08-27 14:29:01+00:00,330.8813,18.54,12.81,47.84626,-54.09684
2021-08-27 14:39:01+00:00,335.7614,18.54,12.81,47.84626,-54.09684
2021-08-27 14:49:01+00:00,334.0197,18.5,12.81,47.84626,-54.09684
2021-08-27 14:59:01+00:00,332.1880000000001,18.5,12.81,47.84626,-54.09684
2021-08-27 15:09:01+00:00,337.2630000000001,18.5,12.81,47.84626,-54.09684
2021-08-27 15:19:01+00:00,339.098,18.5,12.89,47.84626,-54.09684
2021-08-27 15:29:01+00:00,335.853,18.5,12.89,47.84626,-54.09684
2021-08-27 15:39:01+00:00,333.4347,18.5,12.89,47.84626,-54.09684
2021-08-27 15:49:01+00:00,333.4346,18.5,12.89,47.84626,-54.09684
2021-08-27 15:59:01+00:00,328.6746,18.5,12.89,47.84626,-54.09684
2021-08-27 16:09:01+00:00,323.6729,18.49,12.89,47.84626,-54.09684
2021-08-27 16:19:01+00:00,324.4662,18.49,12.89,47.84626,-54.09684
2021-08-27 16:29:01+00:00,325.7047,18.48,12.89,47.84626,-54.09684
2021-08-27 16:39:01+00:00,323.9513,18.48,12.89,47.84626,-54.09684
2021-08-27 16:49:01+00:00,317.9047,18.46,12.89,47.84626,-54.09684
2021-08-27 16:59:01+00:00,314.1714,18.45,12.89,47.84626,-54.09684
2021-08-27 17:09:01+00:00,312.9464,18.42,12.89,47.84626,-54.09684
2021-08-27 17:19:01+00:00,308.7847,18.4,12.97,47.84626,-54.09684
2021-08-27 17:29:01+00:00,297.8763,18.41,12.97,47.84626,-54.09684
2021-08-27 17:39:01+00:00,292.4531,18.4,12.97,47.84626,-54.09684
2021-08-27 17:49:01+00:00,289.5064,18.4,12.97,47.84626,-54.09684
2021-08-27 17:59:01+00:00,282.2531,18.4,12.97,47.84626,-54.09684
2021-08-27 18:09:01+00:00,270.0464,18.4,12.97,47.84626,-54.09684
2021-08-27 18:19:01+00:00,262.5148,18.4,12.97,47.84626,-54.09684
2021-08-27 18:29:01+00:00,258.6114,18.4,12.97,47.84626,-54.09684
2021-08-27 18:39:01+00:00,251.1081,18.4,12.97,47.84626,-54.09684
2021-08-27 18:49:01+00:00,237.5931,18.4,12.97,47.84626,-54.09684
2021-08-27 18:59:01+00:00,227.8481,18.4,12.97,47.84626,-54.09684
2021-08-27 19:09:01+00:00,224.7148,18.4,12.97,47.84626,-54.09684
2021-08-27 19:19:01+00:00,218.3848,18.4,12.81,47.84626,-54.09684
2021-08-27 19:29:01+00:00,205.3998,18.4,12.81,47.84626,-54.09684
2021-08-27 19:39:01+00:00,198.8414,18.4,12.81,47.84626,-54.09684
2021-08-27 19:49:01+00:00,197.7698,18.4,12.81,47.84626,-54.09684
2021-08-27 19:59:01+00:00,192.3365,18.4,12.81,47.84626,-54.09684
2021-08-27 20:09:01+00:00,187.8115,18.4,12.81,47.84626,-54.09684
2021-08-27 20:19:01+00:00,187.6465,18.4,12.73,47.84626,-54.09684
2021-08-27 20:29:01+00:00,187.5165,18.4,12.73,47.84626,-54.09684
2021-08-27 20:39:01+00:00,186.0815,18.4,12.73,47.84626,-54.09684
2021-08-27 20:49:01+00:00,186.9265,18.4,12.73,47.84626,-54.09684
2021-08-27 20:59:01+00:00,189.9798,18.4,12.73,47.84626,-54.09684
2021-08-27 21:09:01+00:00,191.4748,18.4,12.73,47.84626,-54.09684
2021-08-27 21:19:01+00:00,194.8564,18.4,12.65,47.84626,-54.09684
2021-08-27 21:29:01+00:00,199.9915,18.4,12.65,47.84626,-54.09684
2021-08-27 21:39:01+00:00,201.5664,18.4,12.65,47.84626,-54.09684
2021-08-27 21:49:01+00:00,200.9098,18.41,12.65,47.84626,-54.09684
2021-08-27 21:59:01+00:00,205.4348,18.4,12.65,47.84626,-54.09684
2021-08-27 22:09:01+00:00,213.6981,18.4,12.65,47.84626,-54.09684
2021-08-27 22:19:01+00:00,216.8614,18.4,12.65,47.84626,-54.09684
2021-08-27 22:29:01+00:00,214.6348,18.4,12.65,47.84626,-54.09684
2021-08-27 22:39:01+00:00,220.1014,18.4,12.65,47.84626,-54.09684
2021-08-27 22:49:01+00:00,229.4131,18.4,12.65,47.84626,-54.09684
2021-08-27 22:59:01+00:00,230.5281,18.4,12.65,47.84626,-54.09684
2021-08-27 23:09:01+00:00,230.4181,18.4,12.65,47.84626,-54.09684
2021-08-27 23:19:01+00:00,233.9731,18.4,12.65,47.84626,-54.09684
2021-08-27 23:29:01+00:00,236.7247,18.41,12.65,47.84626,-54.09684
2021-08-27 23:39:01+00:00,237.5414,18.41,12.65,47.84626,-54.09684
2021-08-27 23:49:01+00:00,239.3031,18.41,12.65,47.84626,-54.09684
2021-08-27 23:59:01+00:00,245.1848,18.41,12.65,47.84626,-54.09684
